Temperature
16 17 17 18 18 18 17 16 16 16 17 17 17 17 17 18 18 18 17 17 17 17 17 17 17 17 17 17 16 16 16 16 16 16 16 15 15 15 15 15 15 15 15 14
17 17 18 18 18 18 18 18 17 17 17 17 17 18 17 17 17 17 17 17 17 17 17 17 17 17 17 17 16 16 16 16 16 15 15 15 15 15 15 15 15 15 15 14
15 16 17 17 18 18 18 18 18 17 17 17 16 17 17 17 17 17 17 17 17 17 17 17 17 17 16 16 16 16 16 16 16 15 15 15 15 15 15 15 15 14 14 14
14 16 16 17 18 18 18 18 18 18 17 17 17 18 18 18 18 18 18 17 17 17 17 17 17 16 16 16 16 16 16 16 15 15 15 15 15 15 15 15 14 14 14 14
13 14 15 17 18 18 18 17 18 17 17 17 17 17 17 18 18 18 18 18 17 17 17 17 16 16 16 16 16 16 15 15 15 15 15 15 15 15 15 14 14 14 14 14
13 14 15 16 18 18 17 17 17 17 16 17 17 15 16 18 18 18 18 18 18 17 17 17 16 16 16 16 16 15 15 15 15 15 15 15 15 14 14 14 14 14 14 14
13 14 14 16 17 18 16 16 17 17 17 17 17 16 18 18 18 18 18 17 17 17 17 17 16 16 16 15 15 15 15 15 15 15 15 15 14 14 14 14 14 14 14 13
12 13 14 16 16 16 15 17 17 17 17 17 17 17 17 17 17 17 17 17 17 17 17 16 16 16 16 15 15 15 15 15 15 15 14 14 14 14 14 14 14 13 13 13
13 14 15 17 17 17 17 17 17 17 17 17 17 16 17 17 17 17 17 17 17 16 16 16 16 16 16 15 15 15 15 15 15 14 14 14 14 14 14 13 13 13 13 13
13 14 15 16 17 17 17 17 17 17 17 17 17 17 16 16 17 17 17 16 16 16 16 16 16 16 15 15 15 14 14 14 14 14 14 14 14 14 14 13 13 13 13 13
13 14 15 16 16 16 17 17 17 17 17 17 17 16 16 16 16 17 16 16 16 16 16 16 16 15 15 15 15 14 14 14 14 14 14 13 13 13 13 13 13 13 13 13
12 14 13 15 16 16 16 16 16 16 16 16 16 16 16 16 16 16 16 16 16 16 15 15 15 15 15 14 14 14 14 14 14 13 13 13 13 13 13 13 12 12 12 12
15 15 15 15 15 16 16 16 16 16 16 16 16 16 16 16 16 16 16 16 16 16 15 15 15 15 14 14 14 14 14 14 13 13 13 13 13 13 12 12 12 12 12 12
14 14 14 15 15 15 16 16 16 16 16 16 16 16 16 16 16 16 16 16 15 15 15 15 15 14 14 14 14 14 14 13 13 13 13 13 12 12 12 12 12 12 11 11
14 14 14 15 15 15 15 15 15 15 15 15 15 15 15 15 15 15 15 15 15 15 15 15 14 14 14 14 14 13 13 13 13 13 13 12 12 12 12 12 12 11 11 11
14 14 14 14 14 15 15 15 15 15 15 15 15 15 15 15 15 15 15 15 15 15 14 14 14 14 14 14 13 13 13 13 13 12 12 12 12 12 11 11 11 11 11 11
13 13 13 14 14 14 14 15 15 15 14 14 15 15 15 15 15 14 14 14 14 14 14 14 14 14 14 14 13 13 13 12 12 12 12 12 12 11 11 11 11 11 11 11
13 13 14 14 14 14 14 14 14 14 14 14 14 14 14 14 14 14 14 14 14 14 14 14 14 14 13 13 13 13 12 12 12 12 12 11 11 11 11 11 10 10 10 10
13 13 13 13 14 14 14 14 14 14 14 14 14 14 14 14 14 14 14 13 13 13 13 13 13 13 13 13 13 12 12 12 12 12 11 11 11 11 11 10 10 10 10 10
12 13 13 13 13 13 13 14 14 13 13 13 13 13 13 13 13 13 13 13 13 13 13 13 13 13 13 13 12 12 12 12 11 11 11 11 11 10 10 10 10 10 10 10
12 12 12 12 12 13 13 13 13 13 13 13 13 13 13 13 13 13 13 13 13 13 13 12 12 12 12 12 12 12 11 11 11 11 11 10 10 10 10 10 10 9 9 9
11 12 12 12 12 12 12 12 12 12 12 12 12 12 12 12 12 12 13 13 13 12 12 12 12 12 12 12 11 11 11 11 11 10 10 10 10 10 10 9 9 9 9 9
11 11 11 11 11 11 11 12 12 12 12 12 12 12 12 12 12 12 12 12 12 12 12 12 12 12 12 11 11 11 11 10 10 10 10 10 10 10 9 9 9 9 9 9
10 11 10 10 10 10 11 11 11 11 11 12 12 12 12 12 12 12 12 12 12 12 11 11 11 11 11 11 11 11 10 10 10 10 10 9 9 9 9 9 9 9 8 8
10 10 10 10 10 10 10 10 10 11 11 11 11 11 11 11 11 11 11 11 11 11 11 11 11 11 11 11 10 10 10 10 10 9 9 9 9 9 9 9 9 8 8 8
9 9 9 9 9 9 10 10 10 10 10 10 11 11 11 11 11 11 11 11 11 11 10 10 10 10 10 10 10 10 9 9 9 9 9 9 9 9 9 8 8 8 8 8
9 9 9 9 9 9 9 9 9 9 10 10 10 10 10 10 10 10 10 10 10 10 10 10 9 9 9 9 9 9 9 9 9 9 8 8 8 8 8 8 8 8 7 7
Wind_Speed
6 6 5 6 7 6 6 7 7 8 8 9 8 6 5 4 5 5 5 7 8 8 8 8 8 8 8 8 7 8 8 8 8 7 6 6 5 5 5 5 6 6 6 5
5 5 5 7 9 8 8 8 8 7 9 7 5 3 3 4 6 7 7 7 8 8 8 8 8 8 8 7 7 8 8 8 7 7 7 6 6 5 5 5 5 6 6 5
5 5 4 7 8 8 7 7 7 9 9 4 4 5 7 7 6 7 8 7 8 9 9 9 8 8 9 8 7 8 8 7 7 8 7 7 6 6 6 5 5 5 5 5
2 1 6 8 5 5 5 6 6 6 5 7 7 6 6 7 8 8 7 8 8 8 8 7 7 7 7 7 7 7 7 7 8 8 7 6 6 6 6 5 5 5 5 5
3 3 6 7 4 3 3 5 4 5 5 4 3 1 2 4 7 8 9 8 8 8 7 7 7 7 7 7 7 7 7 7 8 8 8 7 7 6 5 6 5 4 5 5
4 4 6 7 5 2 1 4 4 2 5 4 4 2 5 4 5 5 5 6 7 7 6 7 7 7 8 7 7 8 8 8 7 7 8 8 8 6 5 5 5 5 4 4
5 5 7 6 4 2 3 6 4 2 2 3 4 5 5 4 3 3 4 5 6 7 7 7 7 8 8 8 8 8 7 7 7 7 7 7 6 5 6 6 6 5 4 3
4 4 7 4 1 3 6 3 2 1 1 1 2 2 2 3 3 3 4 5 6 7 7 6 8 9 8 8 7 6 7 7 7 6 6 6 6 5 6 7 6 5 4 2
6 7 5 3 4 4 2 2 2 2 2 2 2 1 2 2 3 4 4 5 5 6 7 6 8 9 10 8 7 7 7 7 7 6 5 6 7 7 6 6 6 5 5 4
2 5 5 3 2 2 2 3 3 2 2 2 2 3 2 3 4 4 5 5 4 6 6 6 7 7 8 8 8 9 8 7 6 6 5 5 5 6 6 6 6 5 5 5
4 5 4 5 4 3 3 2 1 2 2 3 3 3 4 4 4 5 5 5 5 6 6 7 7 7 7 8 9 9 8 7 6 6 6 5 4 4 5 5 7 8 7 6
7 6 4 7 7 5 3 3 3 2 2 2 3 5 4 4 4 5 5 5 5 5 5 5 6 6 6 7 9 9 8 7 6 5 5 5 5 3 2 3 5 7 7 7
7 6 5 7 7 5 4 4 4 3 3 3 3 4 5 3 4 4 4 4 6 6 5 5 5 6 6 7 9 10 9 8 6 6 6 6 5 5 3 1 2 4 6 7
5 4 6 6 7 6 4 4 2 2 3 3 3 3 4 3 4 5 5 5 5 5 4 5 5 5 6 7 8 9 8 8 7 6 6 6 6 5 5 5 4 1 2 5
7 6 7 7 7 5 3 2 2 2 2 2 3 3 4 4 5 5 5 4 4 4 4 5 5 5 5 6 8 8 8 6 6 5 5 5 5 5 5 5 5 3 2 2
6 6 5 5 6 5 3 3 4 4 4 4 3 4 5 5 5 4 4 5 5 5 5 5 6 5 5 6 7 6 6 8 8 6 6 5 5 5 5 5 5 4 4 4
5 6 6 5 5 5 5 5 6 6 5 5 5 5 4 4 4 4 4 5 5 5 5 6 6 5 6 7 7 6 5 7 8 6 6 6 6 6 6 5 5 5 4 5
7 8 8 7 6 6 5 5 4 5 5 5 5 4 5 6 6 6 5 4 3 2 3 4 5 6 6 6 6 5 5 5 6 6 6 6 6 6 6 6 6 5 3 4
4 4 5 5 5 5 5 5 5 5 4 4 5 5 5 6 6 6 5 5 5 4 4 4 7 7 7 7 7 5 6 6 5 5 5 7 6 5 5 6 5 5 5 4
3 3 3 3 2 2 3 4 4 4 4 4 4 4 4 4 5 5 6 6 6 5 5 5 6 6 6 7 8 5 6 6 6 6 6 6 6 6 6 6 6 5 5 5
2 2 2 2 3 3 3 3 3 4 4 4 5 5 5 4 4 5 5 5 4 4 4 7 6 5 6 7 8 6 6 6 6 6 6 6 6 6 6 6 6 6 5 5
2 2 2 2 2 3 3 2 3 4 4 4 4 5 4 4 4 4 5 6 5 5 4 4 5 7 8 8 6 6 6 6 6 6 6 6 6 6 6 6 6 5 5 5
2 2 2 2 2 3 2 2 3 4 4 5 5 5 5 5 5 5 4 4 4 6 5 5 7 9 10 7 6 6 6 7 6 6 6 6 6 6 6 6 5 5 5 5
2 1 2 2 1 1 2 3 2 2 3 4 4 5 5 4 3 3 3 5 6 6 4 6 9 10 9 6 6 6 6 6 6 6 6 6 5 5 5 6 5 5 5 5
2 1 1 1 1 2 2 2 1 1 1 1 2 3 3 4 4 4 3 4 5 4 3 6 9 9 6 5 6 6 6 6 6 6 6 6 6 6 6 6 6 5 5 5
2 1 1 2 2 2 2 1 1 1 1 1 1 1 1 1 3 3 3 3 4 4 4 4 5 6 5 5 5 6 5 6 6 6 6 6 6 6 5 6 6 5 5 5
2 1 1 2 2 2 1 1 1 1 1 2 1 1 1 2 2 3 3 2 3 3 3 3 4 4 4 4 4 5 5 5 5 5 6 6 6 6 6 7 6 5 5 6
Wind_Direction
231 238 235 248 258 249 226 209 210 238 239 245 238 228 229 204 177 165 168 175 180 182 181 176 177 178 176 179 177 170 163 164 173 173 167 158 156 156 152 151 151 145 137 136
268 264 262 259 254 246 239 233 233 243 256 250 223 203 205 193 173 174 182 188 189 186 180 178 178 177 174 176 176 168 165 170 168 160 156 155 154 144 139 141 143 139 140 142
260 278 308 268 239 228 232 230 217 231 238 221 208 199 197 196 191 191 190 190 191 189 187 184 181 176 178 179 171 164 164 165 164 160 158 159 153 142 141 146 143 140 145 142
220 292 240 249 240 214 224 248 234 223 219 198 206 215 210 196 193 200 196 191 191 190 187 181 174 170 172 168 164 162 161 163 165 161 158 153 149 151 148 143 143 146 150 151
166 217 269 283 264 200 210 265 258 213 214 206 186 134 271 220 199 200 199 192 188 186 182 173 169 167 160 161 161 161 167 169 167 162 159 158 161 163 154 145 144 146 149 149
165 190 236 255 283 297 132 265 288 208 191 199 153 161 245 228 201 197 190 184 180 170 163 166 172 161 157 162 164 172 177 175 167 164 164 169 170 162 151 148 150 147 143 153
189 217 254 265 290 48 163 247 281 225 186 188 196 212 221 203 196 188 166 170 170 161 166 175 169 159 162 166 178 182 171 162 160 164 167 167 160 154 148 144 141 144 143 150
172 206 249 275 92 177 231 268 276 230 185 161 208 210 189 169 167 166 154 155 165 164 167 169 165 164 169 181 181 160 156 157 157 160 165 159 155 154 151 147 146 149 145 143
193 216 245 235 209 241 232 244 249 227 232 164 160 196 200 186 178 174 158 157 161 165 164 166 170 171 176 183 164 153 152 158 159 158 159 159 161 159 155 155 158 164 163 170
237 262 264 262 267 275 259 242 242 227 202 178 189 189 204 196 192 180 164 163 157 153 162 173 177 176 178 171 161 158 160 162 160 158 156 156 161 163 162 165 167 171 174 176
250 273 298 287 268 254 280 276 264 293 259 212 190 195 188 183 194 188 173 171 162 161 174 183 178 176 173 163 158 159 163 165 163 163 163 160 159 165 171 182 184 179 183 180
242 242 231 261 269 261 252 246 229 232 271 255 206 187 183 186 190 177 170 168 165 167 174 180 174 175 174 169 166 163 164 165 165 164 164 160 154 131 88 155 174 179 176 174
244 256 248 264 271 260 240 238 232 210 201 227 229 188 177 183 179 162 157 166 177 182 183 179 173 177 179 173 170 170 171 171 167 168 167 165 165 164 160 94 105 152 172 174
265 279 284 278 268 258 243 236 222 202 219 206 202 178 170 166 165 162 170 180 182 177 174 173 173 185 183 172 170 172 170 169 168 174 173 172 174 174 172 169 169 184 182 177
268 256 251 262 264 255 229 194 171 191 206 204 185 176 172 169 177 183 185 171 159 163 172 170 176 188 177 171 170 170 169 172 170 167 167 168 168 165 168 170 171 171 154 159
270 276 267 253 244 244 226 203 199 207 204 205 197 192 192 188 186 182 177 164 162 179 185 183 191 189 169 165 165 167 171 169 165 164 162 163 166 165 165 166 169 173 178 178
243 261 268 260 245 244 235 223 208 205 205 205 201 194 186 174 171 178 187 185 183 190 186 186 189 174 164 162 162 167 167 170 164 162 170 172 171 172 171 171 176 181 189 181
234 242 242 234 229 231 233 226 209 202 205 207 194 183 182 183 188 194 194 181 168 172 192 190 175 163 164 165 164 164 163 169 175 176 174 173 173 174 172 174 177 177 177 169
265 265 259 245 232 219 216 215 207 207 204 188 180 188 196 195 194 191 183 172 175 195 218 198 172 164 168 173 164 165 165 167 170 171 170 167 166 171 173 176 177 178 174 166
273 280 279 272 260 232 214 213 205 208 203 190 182 183 192 198 191 182 177 188 203 206 199 184 176 176 176 175 165 168 170 173 175 174 171 172 176 179 179 178 176 177 179 178
271 271 267 265 268 261 230 206 195 200 198 184 183 192 198 202 191 182 181 206 225 198 183 178 181 183 180 175 167 169 171 174 177 178 178 179 179 179 179 180 178 181 183 182
266 269 272 272 273 274 265 232 204 196 191 191 191 192 189 195 195 193 201 208 204 186 184 190 188 184 179 168 169 170 172 174 176 176 177 179 181 183 183 182 183 183 181 179
269 270 273 275 271 270 279 263 221 201 195 198 200 200 200 201 195 191 215 221 190 187 191 198 190 178 171 168 170 173 175 176 178 180 182 183 184 183 182 180 181 178 177 178
300 313 297 300 332 324 303 285 270 239 209 205 209 208 201 199 215 218 202 188 186 186 195 191 181 175 169 173 174 176 179 179 179 179 178 177 176 176 178 177 178 179 178 175
300 309 316 325 290 264 261 272 290 289 220 227 231 223 210 199 198 200 180 175 176 177 183 184 180 175 173 173 176 179 181 181 177 173 173 173 175 176 178 177 178 178 177 179
308 295 270 254 248 252 255 257 248 230 191 218 268 247 194 163 158 159 160 170 176 177 175 177 174 171 173 174 176 176 177 177 177 177 176 175 175 177 178 178 176 178 181 183
335 338 339 334 319 297 271 243 227 228 207 183 199 230 163 145 141 146 149 160 174 171 168 169 167 163 163 168 170 170 170 171 171 170 172 173 174 177 179 178 180 179 179 180
Height
1512 1508 1508 1508 1506 1505 1509 1512 1517 1510 1506 1500 1496 1495 1495 1494 1494 1495 1497 1498 1500 1502 1504 1506 1509 1512 1515 1518 1522 1524 1527 1529 1531 1533 1536 1537 1539 1541 1543 1544 1546 1547 1548 1550
1510 1505 1505 1505 1502 1501 1502 1501 1503 1501 1499 1492 1492 1493 1493 1493 1493 1494 1495 1496 1498 1500 1502 1504 1507 1510 1513 1516 1519 1522 1524 1527 1529 1531 1534 1536 1538 1539 1541 1543 1544 1546 1547 1548
1516 1508 1506 1508 1498 1496 1496 1493 1495 1498 1493 1490 1491 1491 1490 1491 1491 1491 1492 1494 1496 1498 1499 1501 1504 1507 1511 1513 1517 1519 1522 1525 1527 1529 1531 1534 1536 1538 1539 1541 1542 1544 1545 1547
1516 1513 1518 1501 1488 1488 1490 1488 1487 1486 1486 1486 1486 1487 1488 1489 1489 1490 1490 1491 1493 1495 1497 1499 1502 1506 1509 1512 1515 1517 1520 1522 1525 1527 1529 1531 1534 1535 1537 1539 1540 1542 1543 1545
1517 1517 1508 1495 1487 1486 1489 1489 1484 1484 1484 1485 1485 1486 1486 1487 1487 1488 1488 1490 1491 1493 1495 1498 1501 1504 1507 1510 1513 1515 1517 1520 1522 1525 1527 1529 1531 1533 1535 1537 1538 1540 1542 1543
1514 1514 1512 1495 1484 1482 1486 1491 1484 1482 1482 1483 1484 1489 1486 1484 1485 1486 1487 1488 1490 1492 1494 1497 1499 1502 1505 1507 1510 1512 1515 1517 1520 1523 1525 1527 1529 1531 1533 1535 1536 1538 1540 1541
1509 1510 1501 1488 1482 1483 1495 1492 1482 1481 1481 1481 1482 1482 1482 1482 1483 1484 1485 1486 1488 1490 1492 1495 1498 1500 1503 1505 1507 1510 1513 1515 1518 1521 1523 1525 1527 1529 1530 1532 1534 1536 1538 1539
1505 1508 1501 1483 1483 1486 1486 1481 1480 1480 1479 1480 1480 1480 1481 1481 1481 1483 1484 1485 1487 1488 1490 1493 1495 1498 1500 1502 1505 1508 1511 1513 1516 1518 1521 1523 1525 1526 1528 1530 1532 1534 1535 1537
1494 1493 1483 1480 1481 1481 1480 1479 1478 1478 1478 1478 1478 1478 1479 1479 1480 1481 1483 1483 1485 1486 1488 1491 1493 1495 1497 1500 1503 1505 1508 1511 1513 1516 1518 1520 1522 1524 1526 1528 1529 1531 1533 1534
1487 1482 1479 1478 1478 1478 1478 1477 1477 1476 1476 1477 1477 1477 1477 1478 1479 1480 1481 1482 1483 1485 1487 1488 1490 1492 1495 1498 1500 1503 1505 1508 1511 1513 1516 1518 1520 1522 1523 1525 1526 1528 1530 1531
1484 1479 1477 1476 1475 1475 1475 1475 1474 1474 1474 1474 1475 1475 1475 1475 1477 1478 1480 1481 1482 1483 1485 1486 1488 1490 1493 1495 1498 1500 1502 1505 1508 1510 1512 1515 1517 1519 1520 1522 1524 1526 1527 1529
1481 1476 1477 1474 1473 1473 1473 1472 1472 1472 1472 1472 1472 1473 1473 1473 1475 1476 1477 1479 1481 1482 1483 1485 1486 1488 1491 1493 1495 1497 1500 1502 1505 1507 1509 1511 1513 1515 1518 1520 1522 1524 1525 1527
1474 1472 1472 1471 1470 1470 1470 1469 1470 1470 1470 1470 1470 1471 1471 1472 1473 1474 1476 1477 1479 1480 1482 1483 1484 1486 1489 1491 1493 1495 1497 1499 1502 1504 1506 1508 1510 1512 1514 1517 1519 1521 1522 1524
1470 1470 1468 1467 1467 1466 1466 1466 1467 1467 1467 1467 1468 1468 1469 1470 1471 1473 1474 1476 1477 1479 1480 1481 1482 1484 1486 1489 1490 1492 1495 1496 1499 1501 1503 1505 1507 1509 1511 1513 1514 1516 1519 1520
1467 1466 1465 1464 1464 1463 1463 1463 1463 1463 1464 1465 1466 1466 1467 1468 1469 1471 1472 1474 1475 1476 1477 1478 1480 1482 1484 1486 1488 1490 1492 1494 1496 1498 1500 1502 1504 1506 1508 1510 1512 1513 1515 1517
1462 1462 1461 1460 1460 1460 1459 1459 1459 1459 1461 1462 1463 1464 1465 1466 1467 1469 1470 1472 1473 1473 1475 1476 1477 1479 1481 1483 1485 1487 1489 1491 1493 1495 1497 1499 1501 1503 1505 1506 1508 1510 1511 1512
1457 1456 1456 1455 1455 1455 1455 1455 1456 1456 1457 1459 1460 1461 1463 1464 1465 1466 1468 1469 1470 1471 1472 1474 1475 1477 1478 1480 1482 1484 1486 1488 1490 1492 1494 1496 1498 1500 1501 1503 1505 1506 1508 1509
1452 1452 1452 1452 1452 1451 1452 1453 1453 1453 1454 1455 1457 1458 1459 1460 1462 1463 1465 1466 1467 1468 1470 1471 1473 1474 1476 1477 1479 1481 1483 1485 1487 1489 1491 1492 1494 1496 1498 1500 1501 1503 1504 1506
1448 1448 1447 1448 1448 1448 1448 1449 1449 1450 1451 1453 1454 1455 1456 1457 1459 1460 1462 1463 1464 1465 1467 1468 1470 1471 1473 1474 1476 1478 1480 1482 1484 1486 1488 1489 1491 1493 1495 1496 1498 1500 1501 1502
1444 1444 1444 1443 1444 1444 1444 1445 1446 1446 1448 1449 1450 1451 1453 1454 1456 1457 1459 1460 1461 1462 1463 1465 1467 1468 1470 1471 1473 1475 1476 1478 1480 1482 1484 1486 1488 1490 1491 1493 1494 1496 1497 1499
1441 1441 1441 1441 1441 1441 1441 1441 1442 1443 1444 1446 1447 1448 1449 1450 1452 1454 1454 1455 1457 1459 1460 1462 1463 1464 1466 1467 1469 1471 1473 1474 1477 1478 1480 1482 1484 1486 1487 1489 1491 1492 1494 1495
1439 1439 1438 1438 1437 1437 1438 1438 1439 1440 1441 1442 1443 1444 1445 1447 1448 1449 1450 1452 1453 1455 1456 1457 1459 1460 1462 1464 1465 1467 1469 1471 1473 1475 1476 1478 1480 1482 1483 1485 1487 1488 1490 1491
1436 1436 1435 1435 1434 1434 1434 1435 1436 1436 1437 1438 1439 1440 1441 1443 1444 1445 1446 1448 1449 1451 1452 1453 1454 1456 1458 1460 1462 1463 1465 1467 1468 1470 1472 1474 1476 1478 1479 1481 1483 1485 1486 1488
1433 1432 1432 1432 1432 1432 1431 1432 1433 1433 1434 1435 1436 1437 1438 1439 1440 1441 1442 1443 1445 1446 1447 1449 1450 1452 1454 1456 1457 1459 1461 1463 1464 1466 1468 1470 1472 1474 1476 1477 1479 1481 1483 1484
1430 1430 1430 1429 1430 1429 1429 1429 1430 1430 1431 1432 1433 1434 1435 1436 1436 1437 1438 1439 1441 1442 1443 1445 1446 1448 1450 1452 1453 1455 1457 1459 1460 1462 1464 1466 1468 1470 1472 1474 1475 1477 1479 1480
1428 1427 1427 1428 1428 1428 1427 1427 1427 1427 1427 1428 1429 1430 1431 1432 1433 1434 1435 1436 1437 1438 1439 1441 1442 1444 1446 1447 1449 1451 1453 1455 1457 1459 1460 1462 1464 1466 1468 1470 1472 1473 1475 1476
1426 1425 1425 1425 1425 1425 1425 1425 1424 1424 1425 1425 1426 1427 1428 1429 1430 1430 1431 1432 1433 1435 1436 1437 1439 1440 1442 1444 1446 1447 1449 1451 1453 1455 1457 1459 1460 1462 1464 1466 1468 1469 1471 1472